| time (UTC) | temp F | wind direction | speed MPH | gust MPH | rain 1hr in | rain 24hr in | rain mn in | humidity % | barometer mb |
| 20260505123710 | 59 | 256 | 2.0 | 6.0 | 0.00 | 0.00 | 0.00 | 36 | 1010.6 |
| 20260505122711 | 59 | 241 | 3.0 | 5.0 | 0.00 | 0.00 | 0.00 | 36 | 1010.6 |
| 20260505121711 | 59 | 242 | 2.0 | 7.0 | 0.00 | 0.00 | 0.00 | 36 | 1010.6 |
| 20260505121211 | 59 | 252 | 4.0 | 7.0 | 0.00 | 0.00 | 0.00 | 36 | 1010.6 |
| 20260505120210 | 58 | 265 | 4.0 | 7.0 | 0.00 | 0.00 | 0.00 | 36 | 1010.4 |
| 20260505114710 | 59 | 271 | 0.0 | 2.0 | 0.00 | 0.00 | 0.00 | 35 | 1010.5 |
| 20260505113711 | 59 | 271 | 1.0 | 3.0 | 0.00 | 0.00 | 0.00 | 35 | 1010.3 |
| 20260505113210 | 59 | 271 | 1.0 | 3.0 | 0.00 | 0.00 | 0.00 | 34 | 1010.2 |
| 20260505112710 | 59 | 264 | 1.0 | 3.0 | 0.00 | 0.00 | 0.00 | 34 | 1010.2 |
| 20260505112210 | 59 | 266 | 2.0 | 3.0 | 0.00 | 0.00 | 0.00 | 34 | 1010.2 |
| 20260505111710 | 59 | 301 | 1.0 | 3.0 | 0.00 | 0.00 | 0.00 | 34 | 1010.3 |
| 20260505111210 | 59 | 301 | 1.0 | 6.0 | 0.00 | 0.00 | 0.00 | 34 | 1010.2 |
| 20260505102210 | 60 | 263 | 3.0 | 5.0 | 0.00 | 0.00 | 0.00 | 33 | 1010.6 |
| 20260505101711 | 60 | 259 | 2.0 | 3.0 | 0.00 | 0.00 | 0.00 | 33 | 1010.5 |
| 20260505100210 | 60 | 258 | 2.0 | 6.0 | 0.00 | 0.00 | 0.00 | 31 | 1010.4 |
| 20260505095711 | 61 | 248 | 2.0 | 6.0 | 0.00 | 0.00 | 0.00 | 31 | 1010.4 |
| 20260505095210 | 61 | 244 | 3.0 | 7.0 | 0.00 | 0.00 | 0.00 | 32 | 1010.3 |
| 20260505094710 | 61 | 257 | 3.0 | 7.0 | 0.00 | 0.00 | 0.00 | 32 | 1010.3 |
| 20260505093210 | 61 | 267 | 2.0 | 6.0 | 0.00 | 0.00 | 0.00 | 31 | 1010.2 |
| 20260505092210 | 61 | 265 | 1.0 | 3.0 | 0.00 | 0.00 | 0.00 | 31 | 1010.4 |
| 20260505091210 | 61 | 275 | 0.0 | 2.0 | 0.00 | 0.00 | 0.00 | 31 | 1010.4 |
| 20260505090710 | 61 | 275 | 1.0 | 2.0 | 0.00 | 0.00 | 0.00 | 31 | 1010.4 |
| 20260505085710 | 61 | 331 | 0.0 | 2.0 | 0.00 | 0.00 | 0.00 | 31 | 1010.6 |
| 20260505085210 | 62 | 331 | 0.0 | 3.0 | 0.00 | 0.00 | 0.00 | 31 | 1010.6 |
| 20260505082710 | 62 | 328 | 2.0 | 12.0 | 0.00 | 0.00 | 0.00 | 31 | 1010.9 |
| 20260505081710 | 62 | 273 | 5.0 | 12.0 | 0.00 | 0.00 | 0.00 | 30 | 1010.9 |
| 20260505080710 | 63 | 270 | 4.0 | 8.0 | 0.00 | 0.00 | 0.00 | 30 | 1011.1 |
| 20260505074710 | 63 | 276 | 5.0 | 12.0 | 0.00 | 0.00 | 0.00 | 29 | 1011.1 |
| 20260505073710 | 64 | 264 | 7.0 | 12.0 | 0.00 | 0.00 | 0.00 | 29 | 1010.9 |
| 20260505072211 | 64 | 274 | 6.0 | 15.0 | 0.00 | 0.00 | 0.00 | 28 | 1010.9 |
| 20260505070711 | 64 | 259 | 9.0 | 14.0 | 0.00 | 0.00 | 0.00 | 27 | 1010.8 |
| 20260505065710 | 65 | 258 | 6.0 | 13.0 | 0.00 | 0.00 | 0.00 | 26 | 1010.5 |
| 20260505065210 | 65 | 250 | 7.0 | 15.0 | 0.00 | 0.00 | 0.00 | 26 | 1010.4 |
| 20260505064210 | 65 | 257 | 9.0 | 15.0 | 0.00 | 0.00 | 0.00 | 26 | 1010.5 |
| 20260505063211 | 65 | 262 | 9.0 | 15.0 | 0.00 | 0.00 | 0.00 | 25 | 1010.3 |
| 20260505062710 | 65 | 250 | 9.0 | 14.0 | 0.00 | 0.00 | 0.00 | 25 | 1010.3 |
| 20260505062210 | 65 | 250 | 9.0 | 14.0 | 0.00 | 0.00 | 0.00 | 25 | 1010.3 |
| 20260505061711 | 66 | 264 | 8.0 | 16.0 | 0.00 | 0.00 | 0.00 | 25 | 1010.3 |
| 20260505055210 | 66 | 260 | 6.0 | 13.0 | 0.00 | 0.00 | 0.00 | 24 | 1010.2 |
| 20260505054710 | 66 | 259 | 5.0 | 13.0 | 0.00 | 0.00 | 0.00 | 24 | 1010.2 |
| 20260505053710 | 66 | 274 | 5.0 | 12.0 | 0.00 | 0.00 | 0.00 | 24 | 1010.2 |
| 20260505051710 | 67 | 251 | 6.0 | 10.0 | 0.00 | 0.00 | 0.00 | 23 | 1010.0 |
| 20260505050710 | 67 | 256 | 6.0 | 10.0 | 0.00 | 0.00 | 0.00 | 23 | 1010.1 |
| 20260505050211 | 67 | 257 | 5.0 | 10.0 | 0.00 | 0.00 | 0.00 | 23 | 1010.1 |
| 20260505040210 | 69 | 257 | 3.0 | 8.0 | 0.00 | 0.00 | 0.00 | 22 | 1010.2 |
| 20260505035210 | 69 | 259 | 5.0 | 9.0 | 0.00 | 0.00 | 0.00 | 22 | 1010.1 |
| 20260505034711 | 69 | 273 | 3.0 | 12.0 | 0.00 | 0.00 | 0.00 | 22 | 1010.1 |
| 20260505033210 | 69 | 275 | 5.0 | 12.0 | 0.00 | 0.00 | 0.00 | 22 | 1009.9 |
| 20260505032210 | 70 | 271 | 3.0 | 13.0 | 0.00 | 0.00 | 0.00 | 21 | 1009.6 |
| 20260505031710 | 70 | 278 | 4.0 | 13.0 | 0.00 | 0.00 | 0.00 | 21 | 1009.5 |
| 20260505030710 | 70 | 286 | 5.0 | 13.0 | 0.00 | 0.00 | 0.00 | 21 | 1009.4 |
| 20260505030210 | 70 | 276 | 6.0 | 18.0 | 0.00 | 0.00 | 0.00 | 21 | 1009.4 |
| 20260505025710 | 70 | 277 | 7.0 | 18.0 | 0.00 | 0.00 | 0.00 | 21 | 1009.3 |
| 20260505024210 | 71 | 277 | 7.0 | 20.0 | 0.00 | 0.00 | 0.00 | 20 | 1009.2 |
| 20260505023210 | 71 | 272 | 5.0 | 18.0 | 0.00 | 0.00 | 0.00 | 19 | 1009.2 |
| 20260505021710 | 72 | 260 | 9.0 | 17.0 | 0.00 | 0.00 | 0.00 | 18 | 1009.1 |
| 20260505015209 | 73 | 275 | 4.0 | 10.0 | 0.00 | 0.00 | 0.00 | 19 | 1008.8 |
| 20260505014710 | 73 | 279 | 6.0 | 14.0 | 0.00 | 0.00 | 0.00 | 18 | 1008.8 |
| 20260505013209 | 73 | 264 | 5.0 | 17.0 | 0.00 | 0.00 | 0.00 | 18 | 1008.6 |
| 20260505011710 | 74 | 267 | 10.0 | 17.0 | 0.00 | 0.00 | 0.00 | 18 | 1008.4 |
| 20260505011210 | 74 | 276 | 6.0 | 13.0 | 0.00 | 0.00 | 0.00 | 17 | 1008.3 |
| 20260505010709 | 74 | 267 | 6.0 | 13.0 | 0.00 | 0.00 | 0.00 | 17 | 1008.4 |
| 20260505010210 | 74 | 256 | 7.0 | 16.0 | 0.00 | 0.00 | 0.00 | 17 | 1008.4 |
| 20260505005710 | 74 | 256 | 9.0 | 18.0 | 0.00 | 0.00 | 0.00 | 17 | 1008.4 |
| 20260505003710 | 75 | 260 | 8.0 | 20.0 | 0.00 | 0.00 | 0.00 | 16 | 1008.5 |
| 20260505003210 | 75 | 264 | 10.0 | 20.0 | 0.00 | 0.00 | 0.00 | 15 | 1008.6 |
| 20260505002711 | 75 | 248 | 7.0 | 20.0 | 0.00 | 0.00 | 0.00 | 15 | 1008.5 |
| 20260505002210 | 76 | 242 | 8.0 | 20.0 | 0.00 | 0.00 | 0.00 | 15 | 1008.6 |
| 20260505000710 | 76 | 260 | 8.0 | 15.0 | 0.00 | 0.00 | 0.00 | 14 | 1008.6 |
| 20260505000211 | 76 | 275 | 7.0 | 14.0 | 0.00 | 0.00 | 0.00 | 14 | 1008.5 |
| 20260504235710 | 76 | 259 | 9.0 | 16.0 | 0.00 | 0.00 | 0.00 | 14 | 1008.5 |
| 20260504234209 | 76 | 262 | 13.0 | 24.0 | 0.00 | 0.00 | 0.00 | 14 | 1008.7 |
| 20260504233210 | 76 | 265 | 10.0 | 18.0 | 0.00 | 0.00 | 0.00 | 13 | 1008.8 |
| 20260504232710 | 76 | 262 | 10.0 | 17.0 | 0.00 | 0.00 | 0.00 | 12 | 1008.8 |
| 20260504232210 | 76 | 273 | 9.0 | 20.0 | 0.00 | 0.00 | 0.00 | 12 | 1008.8 |
| 20260504231710 | 76 | 252 | 10.0 | 20.0 | 0.00 | 0.00 | 0.00 | 12 | 1008.8 |
| 20260504225711 | 76 | 265 | 10.0 | 21.0 | 0.00 | 0.00 | 0.00 | 12 | 1008.8 |
| 20260504225210 | 76 | 255 | 12.0 | 21.0 | 0.00 | 0.00 | 0.00 | 12 | 1008.9 |
| 20260504224710 | 76 | 240 | 13.0 | 21.0 | 0.00 | 0.00 | 0.00 | 12 | 1009.0 |
| 20260504224209 | 77 | 236 | 9.0 | 20.0 | 0.00 | 0.00 | 0.00 | 11 | 1009.0 |
| 20260504223210 | 77 | 254 | 9.0 | 20.0 | 0.00 | 0.00 | 0.00 | 11 | 1009.0 |
| 20260504222709 | 77 | 237 | 12.0 | 20.0 | 0.00 | 0.00 | 0.00 | 11 | 1009.2 |
| 20260504222209 | 78 | 239 | 10.0 | 18.0 | 0.00 | 0.00 | 0.00 | 11 | 1009.2 |
| 20260504221710 | 77 | 253 | 7.0 | 20.0 | 0.00 | 0.00 | 0.00 | 12 | 1009.2 |
| 20260504220710 | 77 | 262 | 6.0 | 18.0 | 0.00 | 0.00 | 0.00 | 12 | 1009.4 |
| 20260504214710 | 77 | 242 | 9.0 | 17.0 | 0.00 | 0.00 | 0.00 | 12 | 1009.6 |
| 20260504213710 | 78 | 230 | 10.0 | 20.0 | 0.00 | 0.00 | 0.00 | 12 | 1009.7 |
| 20260504213210 | 78 | 248 | 11.0 | 21.0 | 0.00 | 0.00 | 0.00 | 12 | 1009.8 |
| 20260504212710 | 78 | 257 | 8.0 | 21.0 | 0.00 | 0.00 | 0.00 | 13 | 1009.8 |
| 20260504211710 | 78 | 244 | 7.0 | 21.0 | 0.00 | 0.00 | 0.00 | 13 | 1010.0 |
| 20260504211210 | 77 | 205 | 9.0 | 18.0 | 0.00 | 0.00 | 0.00 | 12 | 1010.0 |
| 20260504210210 | 78 | 213 | 6.0 | 12.0 | 0.00 | 0.00 | 0.00 | 13 | 1010.3 |
| 20260504204710 | 77 | 230 | 10.0 | 21.0 | 0.00 | 0.00 | 0.00 | 14 | 1010.9 |
| 20260504203210 | 79 | 286 | 4.0 | 14.0 | 0.00 | 0.00 | 0.00 | 15 | 1011.4 |
| 20260504202210 | 79 | 210 | 5.0 | 12.0 | 0.00 | 0.00 | 0.00 | 15 | 1011.7 |
| 20260504200710 | 78 | 294 | 9.0 | 15.0 | 0.00 | 0.00 | 0.00 | 16 | 1012.0 |
| 20260504200209 | 77 | 284 | 8.0 | 15.0 | 0.00 | 0.00 | 0.00 | 16 | 1012.1 |
| 20260504195710 | 77 | 244 | 7.0 | 18.0 | 0.00 | 0.00 | 0.00 | 16 | 1012.3 |
| 20260504195210 | 76 | 237 | 10.0 | 18.0 | 0.00 | 0.00 | 0.00 | 16 | 1012.3 |
| 20260504193710 | 74 | 228 | 6.0 | 26.0 | 0.00 | 0.00 | 0.00 | 17 | 1012.5 |
| 20260504192711 | 74 | 231 | 7.0 | 13.0 | 0.00 | 0.00 | 0.00 | 18 | 1012.6 |
| 20260504192210 | 74 | 239 | 6.0 | 17.0 | 0.00 | 0.00 | 0.00 | 18 | 1012.7 |
| 20260504190710 | 72 | 179 | 5.0 | 15.0 | 0.00 | 0.00 | 0.00 | 20 | 1012.8 |
| 20260504190210 | 73 | 214 | 8.0 | 15.0 | 0.00 | 0.00 | 0.00 | 19 | 1013.0 |
| 20260504185709 | 74 | 244 | 4.0 | 20.0 | 0.00 | 0.00 | 0.00 | 18 | 1013.1 |
| 20260504185211 | 73 | 254 | 8.0 | 20.0 | 0.00 | 0.00 | 0.00 | 18 | 1013.3 |
| 20260504184710 | 72 | 199 | 7.0 | 15.0 | 0.00 | 0.00 | 0.00 | 20 | 1013.4 |
| 20260504184211 | 71 | 231 | 9.0 | 15.0 | 0.00 | 0.00 | 0.00 | 20 | 1013.6 |
| 20260504183710 | 71 | 226 | 6.0 | 14.0 | 0.00 | 0.00 | 0.00 | 21 | 1013.5 |
| 20260504183209 | 71 | 155 | 5.0 | 14.0 | 0.00 | 0.00 | 0.00 | 21 | 1013.5 |
| 20260504182710 | 71 | 214 | 9.0 | 16.0 | 0.00 | 0.00 | 0.00 | 21 | 1013.8 |
| 20260504181210 | 72 | 253 | 9.0 | 18.0 | 0.00 | 0.00 | 0.00 | 20 | 1013.8 |
| 20260504174209 | 70 | 260 | 4.0 | 12.0 | 0.00 | 0.00 | 0.00 | 22 | 1014.2 |
| 20260504173710 | 70 | 262 | 5.0 | 12.0 | 0.00 | 0.00 | 0.00 | 20 | 1014.4 |
| 20260504172710 | 70 | 239 | 6.0 | 14.0 | 0.00 | 0.00 | 0.00 | 21 | 1014.4 |
| 20260504172210 | 70 | 243 | 6.0 | 14.0 | 0.00 | 0.00 | 0.00 | 20 | 1014.5 |
| 20260504171709 | 70 | 242 | 6.0 | 12.0 | 0.00 | 0.00 | 0.00 | 22 | 1014.6 |
| 20260504170710 | 69 | 249 | 3.0 | 12.0 | 0.00 | 0.00 | 0.00 | 23 | 1014.4 |
| 20260504150710 | 61 | 175 | 4.0 | 8.0 | 0.00 | 0.00 | 0.00 | 50 | 1015.2 |
| 20260504150209 | 61 | 167 | 6.0 | 8.0 | 0.00 | 0.00 | 0.00 | 52 | 1015.3 |
| 20260504141210 | 59 | 202 | 3.0 | 7.0 | 0.00 | 0.00 | 0.00 | 59 | 1015.6 |
| 20260504140710 | 58 | 202 | 4.0 | 8.0 | 0.00 | 0.00 | 0.00 | 59 | 1015.5 |
| 20260504130210 | 57 | 185 | 3.0 | 8.0 | 0.00 | 0.00 | 0.00 | 62 | 1015.2 |